Wind_Speed
22 21 20 20 20 19 18 17 16 15 15 14 14 13 13 13 12 12 11 11 10 9 9 9 9 8 7 6 6 6 5 5 5 5 5 5 5 4 4 4 4 4
23 22 21 20 20 19 19 18 18 17 15 15 15 14 13 13 13 13 12 12 11 11 11 10 10 10 8 7 7 6 6 6 6 5 5 6 6 5 6 6 6 5
25 23 23 22 21 20 20 19 18 17 16 16 16 15 14 14 14 14 13 12 12 11 11 11 11 11 10 8 8 8 7 7 7 6 6 6 6 6 7 6 6 6
26 25 24 23 22 21 21 20 19 19 18 17 17 17 15 15 15 15 14 14 13 12 12 12 12 12 11 10 9 8 8 7 7 7 7 8 8 7 7 7 6 6
26 25 24 24 22 22 22 21 21 21 20 19 19 19 18 17 17 17 16 15 14 14 14 15 14 14 13 13 12 12 10 9 8 8 9 9 9 8 7 7 7 6
26 25 25 25 23 23 23 22 22 22 22 21 21 21 20 20 20 19 18 17 17 17 17 18 18 18 17 16 15 15 13 11 10 10 10 10 9 9 8 7 7 7
26 26 26 25 25 24 24 23 23 23 22 22 22 23 23 23 22 21 21 20 20 19 20 20 20 20 19 17 16 15 13 12 10 10 11 10 10 9 9 8 8 8
26 27 27 26 26 26 25 25 24 24 23 23 24 25 25 26 25 24 23 22 21 21 20 20 20 19 18 17 17 15 14 12 11 11 11 11 11 11 10 9 9 9
27 27 27 28 28 27 27 27 26 25 25 25 27 27 26 27 26 25 25 24 23 22 21 20 19 19 18 18 17 16 15 13 11 11 12 13 13 12 11 10 10 11
28 27 28 29 29 28 28 28 26 26 26 27 28 28 27 27 27 26 26 26 24 23 23 21 19 19 19 19 18 17 16 14 12 12 13 13 13 12 12 11 12 12
29 28 29 30 30 29 28 28 27 26 27 28 29 29 27 28 28 27 28 28 26 24 23 21 21 21 20 20 19 18 18 17 14 14 14 14 14 13 13 13 13 14
29 29 30 31 31 29 28 28 27 26 27 28 29 28 27 28 28 28 28 28 26 24 23 22 22 23 22 21 20 19 20 19 16 15 15 14 14 14 14 15 15 15
30 30 30 30 30 29 27 27 27 27 27 28 28 28 27 28 28 28 28 28 28 27 24 23 24 23 22 23 23 21 20 19 17 15 14 14 14 15 16 17 16 15
29 29 29 29 28 27 26 26 26 26 27 28 28 29 29 28 28 28 27 27 27 26 24 24 24 23 22 23 25 24 22 19 17 16 14 13 14 16 17 17 16 15
26 26 27 26 25 25 26 26 26 25 26 27 28 30 29 28 28 28 27 28 28 27 25 25 25 23 24 24 25 26 22 18 17 16 14 14 15 17 17 16 15 15
25 25 24 24 24 24 24 24 24 24 25 26 27 29 28 27 27 28 28 30 32 30 27 25 23 24 27 28 27 26 22 18 18 17 15 15 16 17 17 16 16 15
25 24 23 23 23 23 23 22 22 22 23 25 26 28 28 27 27 29 29 30 32 31 29 26 24 25 30 32 30 26 22 19 19 18 16 15 16 17 17 16 15 15
24 23 22 22 22 23 24 22 20 20 22 23 24 26 27 25 26 28 29 28 29 29 29 27 25 26 31 33 31 28 24 20 18 16 14 14 16 18 17 15 15 15
23 22 22 22 22 22 23 22 21 22 22 21 23 25 25 23 25 27 27 26 26 26 27 26 24 25 30 30 29 29 25 20 17 15 13 13 15 17 16 14 14 14
23 22 22 21 21 21 21 20 21 23 22 22 23 24 24 23 24 26 26 24 24 25 25 23 21 24 28 28 28 27 23 20 19 16 14 14 16 16 15 14 14 12
22 22 21 19 19 20 20 21 22 22 21 23 24 23 24 23 23 25 25 23 23 23 23 21 19 23 27 26 26 26 22 22 22 18 14 14 16 17 16 15 14 12
21 21 20 19 19 20 20 20 21 20 19 21 21 21 23 24 22 23 24 23 23 23 23 20 18 21 24 24 25 25 23 24 23 19 15 15 16 18 17 15 14 13
21 20 20 19 18 19 19 19 19 19 18 18 17 17 19 22 22 23 24 24 23 23 22 20 18 19 21 22 23 24 23 24 22 18 16 17 18 19 18 16 14 13
20 19 19 19 18 18 18 18 19 19 18 17 18 18 18 21 24 23 22 23 23 22 21 21 20 19 20 21 21 21 22 21 19 16 16 17 18 19 18 15 13 14
19 18 18 18 18 18 18 17 17 16 15 16 19 18 18 21 23 20 19 20 21 20 19 19 19 20 21 21 20 19 19 18 16 15 16 18 18 18 16 12 10 12
18 18 17 17 18 18 17 16 15 14 15 17 19 16 14 17 19 17 16 17 16 17 21 23 22 22 23 23 21 18 17 17 15 15 17 17 17 16 14 11 10 11
Wind_Direction
202 203 204 206 209 210 208 205 201 201 202 202 202 200 200 202 198 192 188 187 186 186 186 184 185 187 190 192 197 202 206 211 213 210 214 221 225 230 231 236 243 250
202 201 202 203 207 208 207 207 203 201 200 201 201 198 199 201 198 193 190 188 187 185 184 184 183 186 192 194 196 204 211 218 224 220 220 228 231 235 238 242 244 244
201 200 201 202 205 206 205 206 203 200 198 197 198 197 196 196 196 194 191 188 187 185 184 184 184 186 193 196 197 204 212 220 228 227 225 229 233 238 241 243 248 246
201 200 201 203 205 205 204 203 201 198 197 196 195 196 194 191 192 192 190 188 186 184 184 184 185 188 192 194 196 203 212 223 230 230 229 230 230 235 243 246 252 256
200 199 201 204 205 204 203 202 201 199 198 196 193 193 191 188 188 189 188 185 185 185 184 183 184 188 191 192 193 195 201 212 221 226 231 234 231 230 236 241 247 253
198 197 200 202 203 204 202 201 201 200 199 198 194 191 189 186 186 187 185 184 186 185 185 185 185 187 189 190 192 193 195 199 208 217 225 232 234 232 230 233 241 248
195 196 199 200 201 202 201 199 199 199 200 200 197 191 186 185 185 186 185 185 187 186 186 189 190 187 185 187 191 195 198 200 203 211 218 226 232 233 231 232 239 247
195 195 197 199 200 201 200 198 198 198 199 200 200 194 186 184 185 185 184 185 186 187 188 193 193 187 184 184 187 192 198 202 203 208 216 223 230 233 234 236 241 247
195 195 196 198 200 200 200 200 199 198 198 201 204 198 187 184 185 182 182 184 186 187 189 193 192 188 185 184 185 190 195 198 199 207 218 225 230 234 237 239 244 247
194 195 197 199 201 201 201 203 203 201 199 201 205 200 189 185 184 181 181 183 185 187 189 192 192 189 187 187 188 190 191 193 197 209 223 230 235 240 242 244 248 250
195 196 198 200 202 202 202 204 205 204 201 200 202 200 190 184 182 180 181 183 184 186 187 189 191 191 190 190 191 191 187 186 195 212 225 234 239 244 246 249 252 253
195 196 199 201 202 203 203 206 206 204 202 201 202 200 192 185 182 180 181 182 182 184 185 188 191 192 191 189 190 195 193 187 193 210 224 233 239 245 250 253 253 252
195 197 200 201 201 202 203 206 206 204 205 206 206 206 198 188 183 181 180 180 180 184 187 190 193 193 191 188 190 196 199 194 195 206 219 231 240 248 253 252 250 249
195 197 199 200 200 201 202 204 204 204 207 207 208 212 206 192 185 181 178 177 178 181 187 192 195 194 190 190 193 198 202 199 196 201 214 230 243 251 253 252 250 248
193 195 198 199 199 199 199 201 201 203 207 207 208 214 210 196 187 181 175 176 179 181 186 192 195 193 193 194 196 199 204 202 196 201 216 235 247 252 251 249 248 248
191 193 195 195 197 200 199 199 200 203 208 209 210 214 212 198 187 181 176 178 181 181 185 192 194 194 198 199 198 198 201 201 201 207 222 238 248 252 250 247 246 246
188 191 192 192 197 203 204 201 200 204 211 211 208 212 215 203 187 181 178 178 180 181 186 193 194 197 203 205 204 201 200 205 210 211 218 233 246 251 250 248 246 247
188 191 192 193 196 204 210 209 204 206 214 213 206 209 215 203 186 180 178 179 183 184 188 192 194 199 206 209 210 208 207 212 214 212 216 228 241 247 248 248 248 249
190 193 194 195 195 200 210 214 211 212 214 211 205 207 209 197 184 180 180 184 188 187 187 190 192 198 205 209 213 214 214 217 218 216 220 229 238 244 247 248 247 247
193 196 198 198 195 199 209 213 215 215 211 209 208 207 202 194 186 184 185 189 190 187 187 188 190 199 205 210 216 218 217 219 221 222 223 230 239 245 248 248 246 246
190 194 199 197 194 201 210 214 216 214 209 211 214 209 203 198 189 184 185 188 188 187 186 185 190 202 208 212 217 219 217 217 220 223 224 230 240 244 247 250 250 249
186 190 196 198 199 205 210 213 216 213 208 213 217 212 206 202 195 186 184 186 185 183 182 182 190 203 208 212 217 218 216 216 220 223 225 232 240 243 245 248 248 245
181 186 194 198 201 204 207 213 216 213 209 211 214 210 202 201 201 193 184 183 184 180 179 182 190 204 212 216 217 215 215 217 220 222 225 231 238 241 243 246 241 234
178 182 191 197 201 203 206 212 215 212 210 208 209 209 203 203 207 198 184 185 186 180 181 189 197 207 214 215 213 212 213 215 216 219 224 229 236 240 240 239 233 233
175 179 187 195 200 203 206 210 210 208 206 202 204 210 208 206 206 196 183 186 186 182 192 206 210 211 211 209 207 210 214 213 212 218 225 229 235 238 234 227 226 241
173 178 185 192 198 202 204 207 205 200 192 191 197 202 197 193 194 187 183 188 189 196 210 216 212 210 211 209 208 212 215 212 211 220 228 230 233 234 228 219 224 244
Height
786 788 791 793 795 797 799 801 803 805 807 808 810 812 813 815 816 817 818 820 821 822 824 826 827 829 830 831 832 833 833 833 834 834 834 834 834 834 835 835 835 835
783 785 788 790 792 794 796 799 801 802 804 806 808 809 811 813 815 816 817 818 820 821 822 824 826 827 829 830 831 832 833 833 833 833 834 834 834 834 834 834 834 834
779 782 784 787 789 791 794 796 798 800 802 803 805 807 808 810 812 814 815 817 818 820 821 823 824 826 827 828 830 831 832 833 833 833 833 833 833 833 833 833 832 832
775 778 781 784 786 788 791 792 795 797 799 800 802 804 805 807 810 812 813 815 817 819 820 821 822 824 825 826 827 829 830 831 832 832 833 832 832 832 832 832 831 831
771 775 778 780 783 785 787 789 791 793 795 797 799 800 802 804 806 809 811 813 815 816 817 818 819 820 822 823 824 825 826 828 830 831 832 831 831 831 831 831 830 830
768 771 774 777 779 781 783 785 787 789 791 793 795 797 798 800 803 805 807 809 811 812 813 813 813 814 817 819 821 822 822 824 826 828 830 830 830 830 830 830 829 829
764 767 770 773 775 777 779 781 783 785 787 790 792 793 794 796 799 801 803 805 807 808 809 810 811 811 813 816 818 820 821 821 822 825 827 828 829 829 828 828 828 828
760 763 766 768 771 773 775 777 779 781 783 786 788 790 790 791 794 796 799 802 804 806 807 808 810 810 811 813 815 818 820 820 821 823 825 826 827 827 827 827 827 827
756 759 761 764 766 768 770 772 775 777 779 782 784 786 786 787 790 792 795 798 801 803 804 806 808 809 810 811 813 815 817 818 820 821 823 824 825 825 826 826 826 825
752 754 757 759 761 763 765 768 771 773 775 777 781 783 782 783 786 788 791 794 797 799 801 803 806 807 808 809 810 812 814 816 818 820 822 823 824 824 824 825 824 824
747 750 752 754 756 758 761 764 767 769 771 773 776 778 779 779 782 784 787 790 792 796 799 801 803 805 806 807 809 810 810 812 814 818 819 821 822 822 823 823 822 822
742 745 747 749 751 754 757 760 763 765 767 770 772 775 775 776 778 780 783 786 789 793 797 799 801 803 804 805 807 809 809 808 810 814 817 818 820 820 820 820 820 820
737 740 742 745 747 751 754 756 758 761 763 766 769 772 773 773 774 777 779 782 786 789 793 797 799 801 802 801 803 806 808 806 807 810 813 815 817 817 818 818 817 818
733 736 739 742 745 748 750 752 754 757 759 762 765 768 770 770 770 773 776 779 783 786 791 794 796 798 799 799 800 802 805 805 804 807 810 812 814 814 815 815 815 815
731 734 736 739 742 744 746 748 750 753 756 759 761 764 767 767 768 770 773 775 778 782 786 789 792 794 795 795 796 799 802 803 802 804 807 809 811 811 812 812 812 812
727 730 733 736 739 741 743 745 747 750 753 755 758 761 765 765 765 766 768 770 773 776 781 786 788 790 791 792 793 795 798 801 801 802 804 807 808 809 809 809 809 810
725 728 730 733 736 739 742 743 745 747 750 752 754 759 763 764 762 762 764 766 769 772 778 782 784 786 787 789 790 792 795 798 799 799 801 803 806 807 807 807 807 807
722 725 728 731 733 736 740 742 743 745 747 750 752 756 761 761 759 759 761 764 767 769 773 776 779 781 784 786 788 790 793 795 796 797 798 800 803 804 804 804 804 805
720 723 725 729 731 734 738 740 742 743 745 748 749 753 757 758 757 757 760 763 765 767 769 772 775 778 781 785 787 789 791 794 796 796 796 798 800 801 802 802 802 802
718 720 723 726 728 732 735 737 739 741 743 746 748 751 754 756 756 757 759 762 764 765 768 770 773 776 779 783 786 788 790 793 795 795 794 795 797 798 799 799 799 800
715 718 721 724 727 730 733 735 737 739 742 744 747 749 751 753 754 755 757 760 762 764 767 769 772 774 777 780 784 786 788 790 792 792 792 793 795 796 796 797 797 797
712 715 719 722 726 729 731 733 735 738 741 743 745 747 749 751 753 753 754 757 760 761 764 767 769 771 774 777 780 783 786 788 789 789 789 790 792 793 794 794 794 795
710 713 717 721 724 726 729 731 734 736 739 741 743 744 746 749 751 751 752 754 757 758 760 763 766 768 771 775 777 780 783 784 785 786 786 788 789 790 791 791 792 792
708 711 715 719 722 724 727 730 732 734 736 738 741 743 744 747 749 750 750 752 754 756 758 761 764 766 769 773 775 777 779 780 781 782 783 785 786 787 788 789 789 790
706 709 712 716 719 722 725 728 730 732 734 736 739 741 743 746 748 749 749 751 753 755 758 761 764 764 767 770 772 774 775 776 778 779 780 782 783 784 785 786 787 788
704 707 710 713 717 719 722 725 728 730 732 734 737 741 743 744 746 747 748 750 752 754 757 760 761 762 764 766 769 771 771 773 775 777 778 779 780 781 782 783 784 785